Regional Weather Roundup
Issued by NWS Albany, NY

Home | Current Version | Previous Version | Text Only | Print | Product List | Glossary On
Versions: 1 2 3 4 5 6 7 8 9 10 11 12 13 14 15 16 17 18 19 20 21 22 23 24 25 26 27 28 29 30 31 32 33 34 35 36 37 38 39 40 41 42 43 44 45 46 47 48 49 50
000
ASUS41 KALY 282110
RWRALY

NEW YORK STATE HOURLY WEATHER ROUNDUP
NATIONAL WEATHER SERVICE ALBANY NY
500 PM EDT THU MAY 28 2015

NOTE: "FAIR" INDICATES FEW OR NO CLOUDS BELOW 12,000 FEET WITH NO
SIGNIFICANT WEATHER AND/OR NO OBSTRUCTIONS TO VISIBILITY.

NYZ032-033-038>043-046>054-057>066-NYZ062>081-282200-
EAST


CITY           SKY/WX    TMP DP  RH WIND       PRES   REMARKS
ALBANY         MOSUNNY   76  54  46 NW16G25   30.16R
GLENS FALLS    SUNNY     72  54  53 NW14      30.16R
POUGHKEEPSIE   MOSUNNY   87  57  35 W15G23    30.09R
NEWBURGH       MOSUNNY   84  61  45 W16G29    30.11S
MONTGOMERY     MOSUNNY   84  59  42 W12G21    30.11R
WHITE PLAINS   PTSUNNY   79  68  69 S13       30.11F
ISLIP          CLOUDY    71  63  75 SW10      30.12F
NEW YORK CITY  PTSUNNY   81  63  54 S13       30.10F
CENTRAL PARK   PTSUNNY   83  66  56 VRB3      30.13F
$$

NYZ005>009-017-018-044>046-055-056-282200-
CENTRAL


CITY           SKY/WX    TMP DP  RH WIND       PRES   REMARKS
FULTON         SUNNY     71  55  56 W9        30.24F
SYRACUSE       PTSUNNY   73  55  53 NW9       30.23S
ROME           PTSUNNY   71  56  58 NW14G21   30.23S
ELMIRA         MOSUNNY   79  54  41 NW9       30.23S
BINGHAMTON     MOSUNNY   70  54  56 NW15G21   30.25S
MONTICELLO     SUNNY     77  55  47 W17G26    30.20S
$$

NYZ026>034-041>043-282200-
NORTH


CITY           SKY/WX    TMP DP  RH WIND       PRES   REMARKS
WATERTOWN      SUNNY     67  54  63 SW9       30.23R
FORT DRUM      NOT AVBL
MASSENA        PTSUNNY   69  57  65 W10       30.19R
SARANAC LAKE   CLOUDY    59  56  89 W10G16    30.18S
PLATTSBURGH    CLOUDY    69  55  60 NW13G20   30.13R
$$

NYZ001>004-010>016-019>021-282200-
WEST


CITY           SKY/WX    TMP DP  RH WIND       PRES   REMARKS
NIAGARA FALLS  MOSUNNY   76  51  41 N8        30.23F
BUFFALO        MOSUNNY   75  53  46 SW7       30.24F
DUNKIRK        SUNNY     73  51  46 N6        30.26F
JAMESTOWN      SUNNY     72  48  43 CALM      30.28F
WELLSVILLE     MOSUNNY   74  51  44 N7        30.29F
ROCHESTER      PTSUNNY   76  52  43 N12       30.24F
PENN YAN       MOSUNNY   75  52  44 NW6       30.26F
$$

             KEY
       WCI = WIND CHILL INDEX
       VSB = VISIBILITY
       HX  = HEAT INDEX
$$


USA.gov is the U.S. government's official web portal to all federal, state and local government web resources and services.